Time,TemperatureF,DewpointF,PressureIn,WindDirection,WindDirectionDegrees,WindSpeedMPH,WindSpeedGustMPH,Humidity,HourlyPrecipIn,Conditions,Clouds,dailyrainin,SoftwareType,DateUTC
2013-09-09 00:09:00,68.9,65.2,29.89,West,270,0.0,-999.0,88,-99.99,,,0.00,Acu-Link.com,2013-09-09 04:09:00,
2013-09-09 00:24:00,68.9,65.2,29.89,West,270,0.0,-999.0,88,-99.99,,,0.00,Acu-Link.com,2013-09-09 04:24:00,
2013-09-09 00:39:00,68.7,65.0,29.90,West,270,0.0,-999.0,88,-99.99,,,0.00,Acu-Link.com,2013-09-09 04:39:00,
2013-09-09 00:54:00,68.5,64.8,29.90,West,270,0.0,-999.0,88,-99.99,,,0.00,Acu-Link.com,2013-09-09 04:54:00,
2013-09-09 01:09:00,68.5,64.8,29.90,West,270,0.0,-999.0,88,-99.99,,,0.00,Acu-Link.com,2013-09-09 05:09:00,
2013-09-09 01:25:00,68.2,64.5,29.91,West,270,0.0,-999.0,88,-99.99,,,0.00,Acu-Link.com,2013-09-09 05:25:00,
2013-09-09 01:40:00,68.0,64.3,29.91,West,270,0.0,-999.0,88,-99.99,,,0.00,Acu-Link.com,2013-09-09 05:40:00,
2013-09-09 01:55:00,68.2,64.5,29.92,West,270,0.0,-999.0,88,-99.99,,,0.00,Acu-Link.com,2013-09-09 05:55:00,
2013-09-09 02:10:00,68.0,64.3,29.92,West,270,0.0,-999.0,88,-99.99,,,0.00,Acu-Link.com,2013-09-09 06:10:00,
2013-09-09 02:25:00,67.6,63.9,29.92,West,270,0.0,-999.0,88,-99.99,,,0.00,Acu-Link.com,2013-09-09 06:25:00,
2013-09-09 02:40:00,67.5,63.8,29.92,West,270,0.0,-999.0,88,-99.99,,,0.00,Acu-Link.com,2013-09-09 06:40:00,
2013-09-09 02:55:00,67.3,63.9,29.92,West,270,0.0,-999.0,89,-99.99,,,0.00,Acu-Link.com,2013-09-09 06:55:00,
2013-09-09 03:10:00,67.3,63.9,29.92,WNW,292,0.0,-999.0,89,-99.99,,,0.00,Acu-Link.com,2013-09-09 07:10:00,
2013-09-09 03:25:00,67.3,63.9,29.92,WNW,292,0.0,-999.0,89,-99.99,,,0.00,Acu-Link.com,2013-09-09 07:25:00,
2013-09-09 03:41:00,67.3,63.9,29.93,WNW,292,0.0,-999.0,89,-99.99,,,0.00,Acu-Link.com,2013-09-09 07:41:00,
2013-09-09 03:56:00,67.1,63.4,29.93,NNE,22,0.0,-999.0,88,-99.99,,,0.00,Acu-Link.com,2013-09-09 07:56:00,
2013-09-09 04:11:00,67.1,63.4,29.93,NNE,22,0.0,-999.0,88,-99.99,,,0.00,Acu-Link.com,2013-09-09 08:11:00,
2013-09-09 04:26:00,67.1,63.4,29.94,NNE,22,0.0,-999.0,88,-99.99,,,0.00,Acu-Link.com,2013-09-09 08:26:00,
2013-09-09 04:42:00,67.1,63.4,29.94,NNE,22,0.0,-999.0,88,-99.99,,,0.00,Acu-Link.com,2013-09-09 08:42:00,
2013-09-09 04:57:00,67.3,63.9,29.94,NNE,22,0.0,-999.0,89,-99.99,,,0.00,Acu-Link.com,2013-09-09 08:57:00,
2013-09-09 05:12:00,67.1,63.7,29.95,NNE,22,0.0,-999.0,89,-99.99,,,0.00,Acu-Link.com,2013-09-09 09:12:00,
2013-09-09 05:27:00,67.1,63.4,29.95,NNE,22,0.0,-999.0,88,-99.99,,,0.00,Acu-Link.com,2013-09-09 09:27:00,
2013-09-09 05:42:00,67.1,63.7,29.95,NNE,22,0.0,-999.0,89,-99.99,,,0.00,Acu-Link.com,2013-09-09 09:42:00,
2013-09-09 05:57:00,66.9,63.5,29.95,NNE,22,0.0,-999.0,89,-99.99,,,0.00,Acu-Link.com,2013-09-09 09:57:00,
2013-09-09 06:12:00,66.6,63.3,29.96,NNE,22,0.0,-999.0,89,-99.99,,,0.00,Acu-Link.com,2013-09-09 10:12:00,
2013-09-09 06:27:00,66.4,63.1,29.95,NNE,22,0.0,-999.0,89,-99.99,,,0.00,Acu-Link.com,2013-09-09 10:27:00,
2013-09-09 06:42:00,66.2,62.5,29.96,NNE,22,0.0,-999.0,88,-99.99,,,0.00,Acu-Link.com,2013-09-09 10:42:00,
2013-09-09 06:58:00,66.0,62.3,29.96,NNE,22,0.0,-999.0,88,-99.99,,,0.00,Acu-Link.com,2013-09-09 10:58:00,
2013-09-09 07:13:00,66.0,62.7,29.97,NNE,22,0.0,-999.0,89,-99.99,,,0.00,Acu-Link.com,2013-09-09 11:13:00,
2013-09-09 07:28:00,66.0,62.7,29.97,NNE,22,0.0,-999.0,89,-99.99,,,0.00,Acu-Link.com,2013-09-09 11:28:00,
2013-09-09 07:43:00,66.4,63.1,29.97,NNE,22,0.0,-999.0,89,-99.99,,,0.00,Acu-Link.com,2013-09-09 11:43:00,
2013-09-09 07:58:00,66.7,63.4,29.97,NNE,22,0.0,-999.0,89,-99.99,,,0.00,Acu-Link.com,2013-09-09 11:58:00,
2013-09-09 08:13:00,67.6,64.2,29.97,NNE,22,0.0,-999.0,89,-99.99,,,0.00,Acu-Link.com,2013-09-09 12:13:00,
2013-09-09 08:28:00,68.4,65.0,29.97,NNE,22,0.0,-999.0,89,-99.99,,,0.00,Acu-Link.com,2013-09-09 12:28:00,
2013-09-09 08:43:00,69.4,66.0,29.98,NNE,22,0.0,-999.0,89,-99.99,,,0.00,Acu-Link.com,2013-09-09 12:43:00,
2013-09-09 08:58:00,70.7,67.3,29.98,NNE,22,0.0,-999.0,89,-99.99,,,0.00,Acu-Link.com,2013-09-09 12:58:00,
2013-09-09 09:14:00,72.1,68.7,29.98,WSW,247,0.0,-999.0,89,-99.99,,,0.00,Acu-Link.com,2013-09-09 13:14:00,
2013-09-09 09:29:00,73.4,72.2,29.98,SSE,157,0.0,-999.0,96,-99.99,,,0.00,Acu-Link.com,2013-09-09 13:29:00,
2013-09-09 09:44:00,74.5,70.7,29.98,WNW,292,0.0,-999.0,88,-99.99,,,0.00,Acu-Link.com,2013-09-09 13:44:00,
2013-09-09 09:59:00,76.3,71.1,29.99,NE,45,0.0,-999.0,84,-99.99,,,0.00,Acu-Link.com,2013-09-09 13:59:00,
2013-09-09 10:14:00,80.4,70.9,30.00,North,0,0.0,-999.0,73,-99.99,,,0.00,Acu-Link.com,2013-09-09 14:14:00,
2013-09-09 10:29:00,80.6,71.1,29.99,SSW,202,0.0,-999.0,73,-99.99,,,0.00,Acu-Link.com,2013-09-09 14:29:00,
2013-09-09 10:44:00,82.6,70.1,30.00,South,180,0.0,-999.0,66,-99.99,,,0.00,Acu-Link.com,2013-09-09 14:44:00,
2013-09-09 10:59:00,83.8,69.8,30.00,ESE,112,0.0,-999.0,63,-99.99,,,0.00,Acu-Link.com,2013-09-09 14:59:00,
2013-09-09 11:14:00,85.3,70.3,30.00,ESE,112,0.0,-999.0,61,-99.99,,,0.00,Acu-Link.com,2013-09-09 15:14:00,
2013-09-09 11:29:00,86.2,70.7,30.01,SE,135,0.0,-999.0,60,-99.99,,,0.00,Acu-Link.com,2013-09-09 15:29:00,
2013-09-09 11:45:00,86.5,69.9,30.01,SSE,157,1.1,-999.0,58,-99.99,,,0.00,Acu-Link.com,2013-09-09 15:45:00,
2013-09-09 12:00:00,87.8,69.0,30.00,ESE,112,1.1,-999.0,54,-99.99,,,0.00,Acu-Link.com,2013-09-09 16:00:00,
2013-09-09 12:15:00,88.9,69.5,30.00,East,90,0.0,-999.0,53,-99.99,,,0.00,Acu-Link.com,2013-09-09 16:15:00,
2013-09-09 12:30:00,88.5,68.6,30.00,SSE,157,1.1,-999.0,52,-99.99,,,0.00,Acu-Link.com,2013-09-09 16:30:00,
2013-09-09 12:45:00,91.0,69.1,30.00,East,90,0.0,-999.0,49,-99.99,,,0.00,Acu-Link.com,2013-09-09 16:45:00,
2013-09-09 13:00:00,88.3,69.0,30.00,South,180,0.0,-999.0,53,-99.99,,,0.00,Acu-Link.com,2013-09-09 17:00:00,
2013-09-09 13:15:00,88.7,68.8,30.00,SSW,202,2.2,-999.0,52,-99.99,,,0.00,Acu-Link.com,2013-09-09 17:15:00,
2013-09-09 13:30:00,88.5,66.9,29.99,ESE,112,1.1,-999.0,49,-99.99,,,0.00,Acu-Link.com,2013-09-09 17:30:00,
2013-09-09 13:45:00,90.0,67.0,29.99,South,180,1.7,-999.0,47,-99.99,,,0.00,Acu-Link.com,2013-09-09 17:45:00,
2013-09-09 14:01:00,89.4,67.7,29.99,ESE,112,0.0,-999.0,49,-99.99,,,0.00,Acu-Link.com,2013-09-09 18:01:00,
2013-09-09 14:16:00,90.0,68.2,29.99,ESE,112,1.7,-999.0,49,-99.99,,,0.00,Acu-Link.com,2013-09-09 18:16:00,
2013-09-09 14:31:00,89.6,69.0,29.99,ESE,112,1.7,-999.0,51,-99.99,,,0.00,Acu-Link.com,2013-09-09 18:31:00,
2013-09-09 14:46:00,91.6,65.2,29.98,South,180,1.1,-999.0,42,-99.99,,,0.00,Acu-Link.com,2013-09-09 18:46:00,
2013-09-09 15:01:00,92.8,67.6,29.99,NE,45,1.1,-999.0,44,-99.99,,,0.00,Acu-Link.com,2013-09-09 19:01:00,
2013-09-09 15:16:00,89.1,68.6,29.98,WSW,247,1.7,-999.0,51,-99.99,,,0.00,Acu-Link.com,2013-09-09 19:16:00,
2013-09-09 15:31:00,88.7,69.9,29.98,West,270,1.7,-999.0,54,-99.99,,,0.00,Acu-Link.com,2013-09-09 19:31:00,
2013-09-09 15:46:00,88.9,70.1,29.97,SSW,202,1.1,-999.0,54,-99.99,,,0.00,Acu-Link.com,2013-09-09 19:46:00,
2013-09-09 16:01:00,89.2,65.0,29.98,East,90,1.7,-999.0,45,-99.99,,,0.00,Acu-Link.com,2013-09-09 20:01:00,
2013-09-09 16:17:00,89.1,65.0,29.97,South,180,0.0,-999.0,45,-99.99,,,0.00,Acu-Link.com,2013-09-09 20:17:00,
2013-09-09 16:32:00,88.7,64.6,29.97,SE,135,1.7,-999.0,45,-99.99,,,0.00,Acu-Link.com,2013-09-09 20:32:00,
2013-09-09 16:47:00,88.2,64.1,29.97,ESE,112,1.7,-999.0,45,-99.99,,,0.00,Acu-Link.com,2013-09-09 20:47:00,
2013-09-09 17:02:00,87.4,62.8,29.96,South,180,1.7,-999.0,44,-99.99,,,0.00,Acu-Link.com,2013-09-09 21:02:00,
2013-09-09 17:17:00,86.9,63.6,29.96,South,180,0.0,-999.0,46,-99.99,,,0.00,Acu-Link.com,2013-09-09 21:17:00,
2013-09-09 17:32:00,85.8,63.2,29.96,East,90,0.0,-999.0,47,-99.99,,,0.00,Acu-Link.com,2013-09-09 21:32:00,
2013-09-09 17:47:00,85.5,64.1,29.97,SW,225,0.0,-999.0,49,-99.99,,,0.00,Acu-Link.com,2013-09-09 21:47:00,
2013-09-09 18:02:00,84.9,65.8,29.97,East,90,0.0,-999.0,53,-99.99,,,0.00,Acu-Link.com,2013-09-09 22:02:00,
2013-09-09 18:18:00,84.7,64.5,29.97,North,0,0.0,-999.0,51,-99.99,,,0.00,Acu-Link.com,2013-09-09 22:18:00,
2013-09-09 18:33:00,85.6,66.5,29.96,West,270,0.0,-999.0,53,-99.99,,,0.00,Acu-Link.com,2013-09-09 22:33:00,
2013-09-09 18:49:00,84.6,66.6,29.96,SE,135,0.0,-999.0,55,-99.99,,,0.00,Acu-Link.com,2013-09-09 22:49:00,
2013-09-09 19:04:00,83.3,66.4,29.96,West,270,0.0,-999.0,57,-99.99,,,0.00,Acu-Link.com,2013-09-09 23:04:00,
2013-09-09 19:19:00,80.8,66.5,29.97,WNW,292,0.0,-999.0,62,-99.99,,,0.00,Acu-Link.com,2013-09-09 23:19:00,
2013-09-09 19:34:00,79.2,66.4,29.97,SSW,202,0.0,-999.0,65,-99.99,,,0.00,Acu-Link.com,2013-09-09 23:34:00,
2013-09-09 19:49:00,78.1,66.7,29.97,West,270,0.0,-999.0,68,-99.99,,,0.00,Acu-Link.com,2013-09-09 23:49:00,
2013-09-09 20:04:00,76.6,66.9,29.97,SSE,157,0.0,-999.0,72,-99.99,,,0.00,Acu-Link.com,2013-09-10 00:04:00,
2013-09-09 20:20:00,75.6,66.7,29.97,North,0,0.0,-999.0,74,-99.99,,,0.00,Acu-Link.com,2013-09-10 00:20:00,
2013-09-09 20:35:00,74.5,66.8,29.98,ENE,67,0.0,-999.0,77,-99.99,,,0.00,Acu-Link.com,2013-09-10 00:35:00,
2013-09-09 20:50:00,73.8,66.5,29.98,West,270,0.0,-999.0,78,-99.99,,,0.00,Acu-Link.com,2013-09-10 00:50:00,
2013-09-09 21:05:00,73.0,67.2,29.99,SW,225,0.0,-999.0,82,-99.99,,,0.00,Acu-Link.com,2013-09-10 01:05:00,
2013-09-09 21:20:00,72.5,67.4,29.99,SW,225,0.0,-999.0,84,-99.99,,,0.00,Acu-Link.com,2013-09-10 01:20:00,
2013-09-09 21:35:00,72.0,67.2,29.99,SW,225,0.0,-999.0,85,-99.99,,,0.00,Acu-Link.com,2013-09-10 01:35:00,
2013-09-09 21:50:00,71.6,67.2,30.00,WSW,247,0.0,-999.0,86,-99.99,,,0.00,Acu-Link.com,2013-09-10 01:50:00,
2013-09-09 22:05:00,71.2,66.8,30.01,SSW,202,0.0,-999.0,86,-99.99,,,0.00,Acu-Link.com,2013-09-10 02:05:00,
2013-09-09 22:20:00,70.9,66.5,30.01,SSW,202,0.0,-999.0,86,-99.99,,,0.00,Acu-Link.com,2013-09-10 02:20:00,
2013-09-09 22:35:00,70.5,66.1,30.01,SSW,202,0.0,-999.0,86,-99.99,,,0.00,Acu-Link.com,2013-09-10 02:35:00,
2013-09-09 22:51:00,70.2,66.1,30.01,SSW,202,0.0,-999.0,87,-99.99,,,0.00,Acu-Link.com,2013-09-10 02:51:00,
2013-09-09 23:06:00,70.0,65.9,30.02,SSW,202,0.0,-999.0,87,-99.99,,,0.00,Acu-Link.com,2013-09-10 03:06:00,
2013-09-09 23:21:00,69.6,65.6,30.02,SSW,202,0.0,-999.0,87,-99.99,,,0.00,Acu-Link.com,2013-09-10 03:21:00,
2013-09-09 23:36:00,69.3,65.3,30.03,SSW,202,0.0,-999.0,87,-99.99,,,0.00,Acu-Link.com,2013-09-10 03:36:00,
2013-09-09 23:51:00,68.9,64.9,30.03,SSW,202,0.0,-999.0,87,-99.99,,,0.00,Acu-Link.com,2013-09-10 03:51:00,